Location: El Portezuelo
(28.4984°N, 16.3589°W)
Time: 21:28:08
(UTC+00:00)

Cosmos 2228 - Pass Details

Date: 20 January 2020
Orbit: 588 x 619 km, 82.5° (Epoch: 17 February)

Event Time Altitude Azimuth Distance (km) Brightness Sun altitude
Rises 07:20:18 0° 208° (SSW) 2,874 6.4 -8.6°
Reaches altitude 10° 07:22:46 10° 220° (SW) 1,975 5.4 -8.1°
Maximum altitude 07:26:32 28° 280° (W) 1,164 3.9 -7.4°
Drops below altitude 10° 07:30:20 10° 340° (NNW) 1,986 5.3 -6.6°
Sets 07:32:49 0° 352° (N) 2,894 6.2 -6.0°
